Tracking 20083 objects as of 9-Dec-2019
HD Live streaming from Space Station
objects crossing your sky now

FENGYUN 1C DEB

Track FENGYUN 1C DEB now!
10-day predictions


NORAD ID: 31881
Int'l Code: 1999-025CKG
Perigee: 533.9 km
Apogee: 596.5 km
Inclination: 99.1 °
Period: 95.8 minutes
Semi major axis: 6936 km
RCS: 0.0079 m2 (small)
Launch date: May 10, 1999
Source: People's Republic of China (PRC)
Launch site: Taiyaun Space Center, China (TSC)

Note: This is SATELLITE DEBRIS
aabbcc
Your satellite tracking list
Your tracking list is empty




NASA's NSSDC Master Catalog

Two Line Element Set (TLE):
1 31881U 99025CKG 19342.80518727  .00004909  00000-0  36426-3 0  9999
2 31881  99.0550 109.0243 0045117  59.9365 300.6318 15.02854719666523
Source of the keplerian elements: AFSPC